Temperature
16 16 16 15 15 15 15 15 15 15 15 14 14 14 14 14 14 14 14 14 14 14 14 14 14 14 13 13 13 13 13 13 13 13 12 12 12 12 12 12 12 12 12
16 16 15 15 15 15 15 15 15 15 15 14 14 14 14 14 14 14 14 14 14 14 13 13 13 13 13 13 13 13 13 13 12 12 12 12 11 12 12 12 11 11 11
16 16 15 15 15 15 15 15 15 15 14 14 14 14 14 14 14 14 13 13 13 13 13 13 13 13 13 13 13 13 12 12 12 12 12 12 11 12 11 11 11 11 11
16 16 15 15 15 15 15 15 15 14 14 14 14 14 14 14 13 13 13 13 13 13 13 13 13 13 13 13 13 12 12 12 12 12 11 11 11 11 11 11 11 11 11
16 15 15 15 15 15 15 15 15 15 14 14 14 14 14 14 13 13 13 13 13 13 13 13 13 13 13 13 12 12 12 12 12 11 11 11 11 11 11 10 10 10 10
16 15 15 15 15 15 15 15 15 14 14 14 14 14 14 14 13 13 13 13 13 12 12 12 12 12 12 12 12 12 12 12 11 11 11 11 10 10 10 10 10 10 10
16 16 15 15 15 15 15 15 15 14 14 14 14 14 13 13 13 13 13 13 12 12 12 12 12 12 12 12 12 12 12 12 11 11 11 10 10 10 10 10 10 9 9
16 15 15 15 15 15 15 14 14 14 14 14 14 13 13 13 13 13 13 12 12 12 12 12 11 11 12 11 11 11 11 11 11 11 10 10 10 10 10 10 9 9 9
16 15 15 15 15 15 15 14 14 14 14 14 13 13 13 13 13 13 13 12 12 12 12 11 11 11 11 11 11 11 11 11 11 11 10 10 10 10 10 9 9 9 9
16 15 15 15 15 15 15 14 14 14 14 14 13 13 13 13 13 12 12 12 11 11 11 11 11 11 11 11 10 10 10 10 10 10 10 10 9 9 9 9 9 8 8
15 15 15 15 15 15 14 14 14 14 14 13 13 13 13 12 12 12 12 12 11 11 11 11 11 11 11 11 11 10 10 10 9 9 9 9 9 9 9 9 8 8 8
15 15 15 15 14 14 14 14 14 14 13 13 13 12 12 12 12 12 12 12 11 11 11 11 11 11 11 10 10 10 10 10 9 9 8 8 8 8 8 8 8 8 8
15 14 14 14 14 14 14 14 13 13 13 12 12 12 12 12 12 12 12 11 11 11 11 10 10 10 10 10 10 10 9 9 9 8 8 8 8 8 8 8 8 7 7
14 14 14 14 14 13 13 13 13 13 13 12 12 12 12 12 11 11 11 11 11 10 10 10 10 10 10 9 9 9 9 9 8 8 8 8 8 7 7 7 7 7 7
14 14 13 13 13 13 13 13 13 13 12 12 12 12 11 11 11 11 11 10 10 10 10 9 9 9 9 9 8 8 8 8 8 8 7 7 7 7 7 7 7 7 6
14 13 13 13 13 13 12 12 12 12 12 12 12 12 11 11 11 11 11 10 10 10 9 9 9 8 8 8 8 8 8 7 7 7 7 7 6 6 6 6 6 6 6
13 13 13 13 13 13 12 12 12 12 12 12 11 11 11 11 11 10 10 10 9 9 9 8 8 8 8 8 7 7 7 7 7 7 6 6 6 6 6 6 5 5 5
13 13 13 13 13 12 12 12 12 12 11 11 11 11 11 10 10 10 10 9 9 8 8 8 8 8 7 7 7 7 7 6 6 6 6 6 5 5 5 5 5 5 5
13 13 13 13 12 12 12 11 11 11 11 11 11 10 10 10 9 9 9 9 8 8 8 8 7 7 7 7 7 6 6 6 6 6 5 5 5 5 5 4 4 4 4
13 12 12 12 12 11 11 11 11 11 10 10 10 10 10 9 9 9 8 8 8 8 7 7 7 7 7 6 6 6 6 6 5 5 5 5 5 4 4 4 4 4 4
12 12 12 12 11 11 11 11 10 10 10 10 10 9 9 9 9 8 8 8 7 7 7 7 6 6 6 6 6 6 5 5 5 5 4 4 4 4 4 4 3 3 3
11 11 11 11 11 11 11 10 10 10 10 9 9 9 9 8 8 8 7 7 7 7 6 6 6 6 6 6 5 5 5 5 4 4 4 4 3 3 3 3 3 3 3
11 11 11 11 10 10 10 10 10 9 9 9 9 8 8 8 8 7 7 7 7 6 6 6 6 5 5 5 5 5 4 4 4 3 3 3 3 3 2 2 2 2 2
11 10 10 10 10 9 9 9 9 9 9 9 8 8 8 7 7 7 7 6 6 6 6 5 5 5 5 4 4 4 4 3 3 3 3 3 2 2 2 2 2 2 1
10 10 10 9 9 9 9 9 8 8 8 8 8 7 7 7 7 6 6 6 6 5 5 5 5 4 4 4 4 3 3 3 3 3 2 2 2 2 1 1 1 1 1
9 9 9 9 9 8 8 8 8 8 7 7 7 7 7 6 6 6 6 5 5 5 5 4 4 4 4 4 3 3 3 3 3 2 2 2 1 1 1 1 1 0 0
Wind_Speed
10 9 8 7 7 6 5 4 4 4 4 4 3 3 4 4 4 3 3 3 3 3 3 3 3 3 2 2 1 2 2 2 1 2 2 3 4 5 5 5 6 6 8
10 9 8 8 7 7 6 5 5 4 4 4 4 4 4 3 3 3 3 3 3 3 3 3 3 2 2 2 2 2 2 2 1 1 2 3 4 4 4 4 5 6 6
11 10 9 9 8 7 6 5 5 5 5 5 4 4 4 3 3 3 3 2 2 2 2 2 2 2 2 2 2 1 1 2 1 1 2 2 2 3 3 3 4 4 5
11 11 10 9 8 7 6 6 5 5 5 5 4 4 3 3 3 2 2 2 2 2 2 2 3 3 3 2 2 2 1 1 1 1 1 2 2 3 3 3 3 3 4
12 11 10 9 8 7 7 6 5 5 5 5 5 4 3 2 2 2 2 2 2 2 2 3 4 5 7 5 3 2 1 1 1 1 1 1 2 3 3 3 3 3 3
12 12 10 9 8 7 7 7 6 6 5 5 5 5 4 3 4 1 1 2 2 2 2 2 3 3 5 5 5 5 4 2 2 1 1 2 3 3 3 3 3 4 3
12 11 11 10 9 8 8 7 7 7 6 5 5 5 4 4 5 3 1 1 2 1 2 2 2 2 1 2 3 3 3 4 4 3 3 3 3 4 4 4 4 4 4
12 11 11 10 10 9 8 8 8 7 6 5 5 5 4 4 5 4 3 2 2 2 1 1 1 2 2 1 1 1 2 3 3 2 3 3 4 4 4 4 5 4 4
11 11 11 11 10 9 9 8 7 7 6 6 5 5 5 5 6 5 4 3 2 2 1 1 0 1 4 2 1 0 1 2 4 3 4 3 4 4 4 3 4 4 4
11 11 10 10 10 10 9 8 7 7 6 6 5 5 5 4 6 5 5 3 3 2 2 1 2 1 2 2 2 1 1 1 1 0 1 1 1 1 3 3 4 4 4
10 10 10 10 9 9 8 7 7 7 7 6 6 5 4 4 6 6 4 3 3 2 2 1 1 3 1 2 3 2 2 3 2 2 2 2 2 2 2 3 4 4 5
8 9 9 9 8 7 8 7 7 7 7 6 6 5 4 4 4 5 5 3 2 2 2 1 2 4 1 2 2 1 2 4 2 2 2 3 3 3 3 4 5 5 5
9 9 8 8 7 7 8 8 7 7 6 6 5 5 4 4 4 6 6 4 2 2 1 2 2 2 3 2 2 2 3 3 2 3 3 3 3 4 4 4 5 6 6
9 9 8 8 8 7 6 6 6 6 6 6 5 5 4 4 4 4 4 4 5 3 2 3 4 3 3 1 2 3 3 2 3 4 4 4 4 4 4 5 5 5 6
9 9 8 7 7 7 6 5 6 5 5 5 5 5 5 5 4 3 4 4 3 2 2 2 3 3 3 2 2 2 3 3 4 4 4 4 5 5 5 5 5 6 7
8 8 7 6 6 6 6 5 3 2 4 2 1 2 3 2 6 5 4 3 3 4 4 3 3 3 3 3 3 3 4 4 4 4 5 5 5 6 6 6 6 6 7
7 7 6 6 6 6 6 5 5 4 5 4 3 2 2 4 6 6 5 5 5 6 5 4 3 4 4 4 4 4 4 4 4 5 5 6 6 6 6 7 7 7 7
7 6 6 6 6 6 6 6 5 5 5 4 4 5 5 5 6 7 6 5 4 5 4 4 4 4 4 4 4 4 4 4 4 5 5 6 6 6 7 7 7 8 8
6 5 5 5 5 6 6 5 5 5 4 4 3 4 5 5 6 6 7 4 4 4 4 4 4 4 4 4 4 4 4 4 5 5 5 6 6 6 7 7 8 8 9
5 5 5 5 5 5 6 5 5 5 4 4 4 4 4 4 3 4 4 4 4 4 4 4 4 4 4 4 4 4 4 5 5 5 5 6 6 7 8 9 8 9 8
5 5 6 5 5 5 5 5 5 5 5 4 4 4 5 5 5 5 5 4 5 5 4 4 4 4 4 4 4 5 6 5 5 5 6 6 7 7 7 8 9 9 9
4 5 5 5 4 4 4 4 5 5 5 5 3 4 6 5 4 4 4 4 4 4 4 4 4 4 4 4 5 5 6 6 6 6 6 7 7 8 8 8 9 9 9
4 5 5 5 4 5 5 4 4 5 5 5 4 4 4 4 4 4 4 4 4 4 4 5 5 5 5 6 6 6 6 5 5 6 7 7 7 8 8 9 10 11 10
4 4 4 4 4 4 4 4 4 4 5 5 4 4 4 4 5 5 5 4 4 4 5 5 6 6 6 6 6 6 6 6 7 8 9 8 8 8 9 9 10 11 11
3 3 3 3 4 4 4 4 4 4 4 4 4 4 4 5 5 5 5 4 5 5 5 6 5 6 7 7 7 6 6 7 8 8 9 8 9 9 10 10 10 11 10
2 3 3 3 3 3 3 3 3 4 4 4 4 4 4 4 4 4 4 4 4 4 5 6 6 7 7 7 7 7 7 8 9 10 10 8 9 9 9 9 11 10 11
Wind_Direction
181 178 174 174 173 173 167 163 162 154 149 144 136 125 112 107 106 103 94 91 83 82 74 65 62 48 48 46 35 29 25 21 52 47 36 25 19 20 23 23 27 33 47
181 178 177 171 174 177 172 168 165 159 154 150 141 136 126 119 113 110 102 96 86 74 68 65 65 69 50 34 27 31 36 17 25 46 29 17 17 20 19 17 28 28 31
179 178 179 176 176 177 172 166 167 164 160 155 148 144 138 137 129 121 114 101 87 74 71 64 57 60 57 51 27 34 42 41 28 32 25 18 10 14 7 12 29 23 15
176 180 183 181 177 177 172 169 172 168 164 162 154 150 146 145 145 141 129 115 102 86 67 53 43 35 25 29 32 44 47 56 49 42 27 19 15 8 356 358 1 8 4
178 182 184 181 178 176 170 171 169 164 165 161 156 152 146 147 146 160 157 147 128 109 95 76 60 51 34 26 17 24 35 29 41 25 11 359 359 354 354 345 343 343 354
182 182 178 178 175 175 173 172 166 163 161 156 157 154 152 145 100 52 261 160 152 137 121 104 96 93 88 75 54 37 15 359 354 352 335 336 343 346 347 330 334 334 334
184 179 177 176 175 177 173 169 166 166 161 158 162 160 161 132 129 140 247 182 158 144 135 120 98 90 141 103 108 126 70 39 354 331 327 338 337 342 329 325 325 323 326
184 180 177 177 177 174 173 171 173 172 164 168 170 167 156 144 146 154 185 186 159 152 150 144 135 110 67 37 87 62 40 33 19 344 346 348 346 336 320 315 311 305 304
184 184 180 178 176 175 175 175 174 172 170 172 171 171 168 161 156 168 205 182 175 168 163 153 183 123 77 333 278 42 41 51 78 64 24 11 10 349 323 305 307 303 311
186 184 180 177 177 180 180 178 172 172 172 171 171 182 179 172 155 175 220 196 191 179 166 156 80 63 92 307 263 268 294 336 337 327 225 224 271 316 292 301 307 305 310
180 178 176 176 178 178 175 173 172 171 171 174 172 179 181 173 165 177 218 217 203 200 195 190 131 123 135 309 297 306 339 317 297 299 310 317 314 322 325 321 323 310 305
169 171 172 173 171 169 167 169 172 170 173 177 180 179 182 174 171 176 191 231 274 210 213 205 128 132 160 277 293 25 326 289 280 286 294 302 308 312 314 318 314 308 302
165 168 168 166 166 169 168 168 170 175 181 185 185 185 184 179 167 168 181 190 225 224 198 73 106 167 197 210 180 234 253 264 275 279 287 297 304 307 307 302 297 296 296
164 165 165 165 164 167 169 172 175 181 186 188 188 190 186 184 182 181 185 182 183 197 185 155 171 201 227 234 220 231 254 279 282 281 288 292 295 292 291 296 296 296 293
161 160 162 163 161 166 167 172 181 180 183 186 188 188 188 194 182 167 189 196 203 191 186 203 219 221 231 237 248 260 268 267 269 277 281 285 287 287 289 291 292 291 291
160 160 160 159 158 161 163 157 105 112 116 126 119 189 185 144 133 147 164 156 155 169 200 217 229 238 245 254 260 264 265 270 277 281 280 282 285 288 290 289 287 287 291
163 161 161 162 161 162 166 168 165 144 128 132 137 160 170 147 153 166 169 168 174 185 214 230 237 245 252 259 265 268 272 276 278 277 279 282 286 288 289 291 292 292 292
164 159 162 166 168 169 173 176 177 175 174 171 160 157 158 152 157 162 164 167 185 202 230 239 244 250 257 262 267 271 275 277 276 278 280 282 284 286 289 291 292 295 295
162 164 168 167 168 171 173 177 179 180 178 173 167 160 162 164 163 164 173 200 214 221 234 243 249 253 258 264 269 272 275 276 279 281 282 284 285 286 287 289 291 292 289
163 153 162 166 167 170 171 173 176 180 180 180 184 177 164 173 181 181 198 221 232 235 239 245 251 257 259 261 266 269 273 275 278 280 285 286 287 287 288 289 291 292 291
161 159 163 168 171 174 176 177 181 182 185 190 194 174 176 192 198 201 207 221 235 241 243 248 252 254 257 261 263 266 272 277 280 284 288 289 290 289 289 289 289 289 290
168 168 173 177 175 179 181 181 183 184 187 192 188 169 175 200 206 212 219 228 237 244 249 251 254 255 255 257 262 267 272 277 282 286 290 291 291 289 289 289 290 292 292
171 171 171 176 177 173 183 189 188 190 192 194 192 189 191 210 220 227 233 236 240 246 250 250 255 258 259 260 261 263 269 276 286 289 289 287 287 287 287 287 288 291 291
171 174 174 175 178 184 191 197 197 199 201 202 202 204 208 217 228 234 236 235 239 245 249 252 256 259 262 265 265 265 270 282 288 282 280 283 285 286 286 286 287 290 291
169 173 177 181 184 191 198 203 205 207 209 212 214 216 219 224 230 235 236 236 240 246 251 253 254 258 261 264 268 274 285 286 284 286 283 277 280 281 282 284 286 289 289
166 175 180 184 190 197 201 206 210 213 215 217 221 225 226 229 235 238 236 237 244 250 255 256 257 262 266 266 270 276 276 274 275 279 281 276 278 279 283 284 288 288 290
Height
1559 1562 1564 1566 1568 1570 1571 1572 1573 1574 1575 1576 1576 1577 1577 1577 1576 1576 1576 1576 1576 1576 1575 1575 1574 1574 1574 1573 1573 1572 1572 1572 1572 1571 1569 1568 1566 1565 1563 1561 1559 1557 1555
1558 1561 1563 1565 1567 1569 1570 1571 1573 1574 1575 1576 1576 1577 1577 1577 1577 1577 1577 1576 1576 1576 1576 1575 1575 1574 1574 1573 1573 1572 1572 1571 1571 1570 1569 1568 1566 1564 1562 1561 1559 1558 1556
1556 1559 1562 1564 1566 1568 1569 1571 1572 1573 1574 1575 1576 1577 1577 1577 1577 1577 1577 1577 1577 1576 1576 1576 1575 1575 1574 1574 1573 1573 1572 1571 1571 1570 1569 1567 1566 1564 1562 1561 1559 1557 1556
1554 1557 1560 1563 1565 1567 1568 1570 1571 1572 1574 1575 1576 1576 1577 1577 1577 1577 1577 1577 1577 1576 1576 1576 1575 1575 1574 1574 1573 1572 1572 1571 1570 1569 1568 1567 1565 1564 1562 1561 1559 1558 1555
1552 1555 1558 1561 1563 1565 1567 1569 1570 1571 1573 1574 1575 1576 1576 1576 1577 1577 1577 1577 1577 1576 1576 1575 1575 1574 1573 1573 1572 1572 1571 1571 1570 1569 1568 1567 1565 1564 1562 1560 1559 1557 1555
1550 1553 1556 1559 1561 1564 1566 1567 1569 1570 1572 1573 1574 1575 1575 1576 1576 1576 1576 1576 1576 1576 1576 1575 1574 1573 1572 1572 1571 1570 1570 1570 1569 1569 1568 1566 1565 1563 1561 1560 1559 1557 1555
1548 1551 1554 1557 1559 1562 1564 1566 1567 1569 1570 1572 1573 1573 1574 1575 1575 1575 1575 1575 1575 1575 1575 1574 1573 1572 1572 1572 1571 1570 1569 1568 1568 1568 1567 1565 1564 1562 1561 1559 1557 1556 1554
1545 1548 1551 1554 1557 1560 1562 1564 1566 1568 1569 1570 1571 1572 1573 1573 1573 1574 1574 1574 1574 1574 1573 1573 1573 1572 1571 1571 1570 1569 1569 1567 1566 1566 1565 1563 1562 1560 1559 1558 1556 1554 1552
1542 1546 1549 1552 1555 1558 1560 1562 1564 1566 1567 1569 1570 1570 1571 1572 1572 1572 1572 1572 1572 1572 1572 1572 1572 1571 1570 1569 1569 1569 1568 1566 1565 1564 1563 1561 1560 1558 1557 1555 1554 1553 1551
1540 1543 1546 1549 1552 1555 1558 1560 1562 1564 1565 1567 1568 1569 1569 1570 1570 1570 1570 1571 1571 1571 1571 1570 1570 1569 1569 1568 1568 1567 1566 1565 1564 1563 1561 1560 1558 1557 1555 1554 1552 1551 1549
1537 1541 1544 1547 1550 1553 1555 1557 1559 1561 1563 1564 1565 1566 1567 1568 1568 1569 1569 1569 1569 1569 1569 1569 1568 1568 1567 1566 1566 1565 1564 1563 1562 1561 1560 1558 1557 1555 1554 1552 1550 1549 1547
1535 1538 1541 1544 1547 1550 1552 1555 1557 1559 1560 1562 1563 1564 1565 1565 1566 1566 1567 1567 1567 1567 1567 1567 1566 1566 1565 1565 1564 1563 1562 1561 1561 1559 1558 1557 1555 1553 1551 1549 1548 1546 1544
1532 1535 1538 1541 1544 1546 1549 1551 1554 1556 1557 1559 1560 1561 1562 1563 1563 1564 1564 1564 1565 1565 1565 1564 1564 1564 1563 1562 1562 1561 1560 1559 1558 1557 1556 1554 1553 1551 1549 1546 1545 1543 1541
1531 1533 1536 1539 1541 1544 1546 1548 1551 1553 1554 1556 1557 1558 1559 1560 1561 1561 1561 1562 1562 1562 1562 1562 1562 1561 1561 1560 1559 1559 1558 1557 1556 1555 1553 1552 1550 1548 1546 1544 1542 1540 1537
1529 1531 1534 1536 1539 1541 1543 1546 1548 1550 1551 1553 1554 1555 1556 1557 1558 1558 1559 1559 1559 1559 1559 1559 1559 1559 1558 1558 1557 1556 1555 1554 1553 1552 1550 1549 1547 1545 1543 1541 1539 1536 1534
1527 1529 1532 1534 1536 1539 1541 1543 1545 1547 1549 1550 1552 1553 1554 1555 1555 1556 1556 1557 1557 1557 1557 1557 1557 1556 1556 1555 1554 1553 1552 1551 1550 1549 1547 1545 1544 1542 1540 1537 1535 1533 1530
1525 1527 1529 1532 1534 1536 1538 1540 1542 1544 1546 1547 1549 1550 1551 1552 1552 1553 1553 1554 1554 1554 1554 1554 1554 1553 1553 1552 1551 1550 1549 1548 1547 1545 1544 1542 1540 1538 1536 1534 1532 1529 1526
1524 1526 1528 1529 1531 1533 1536 1538 1540 1541 1543 1544 1546 1547 1548 1549 1549 1550 1550 1551 1551 1551 1551 1551 1550 1550 1549 1549 1548 1547 1546 1544 1543 1541 1540 1538 1536 1534 1532 1530 1527 1525 1522
1521 1523 1525 1527 1529 1531 1533 1535 1537 1538 1540 1541 1542 1544 1544 1545 1546 1547 1547 1547 1547 1547 1547 1547 1547 1546 1545 1545 1544 1543 1542 1541 1539 1538 1536 1534 1532 1530 1528 1525 1523 1520 1518
1519 1521 1523 1524 1526 1528 1529 1531 1533 1535 1536 1537 1539 1540 1540 1541 1542 1542 1543 1543 1543 1543 1543 1543 1543 1542 1542 1541 1540 1539 1538 1537 1535 1534 1532 1530 1528 1526 1523 1521 1519 1516 1513
1517 1519 1520 1522 1523 1525 1526 1528 1530 1531 1533 1534 1535 1536 1536 1537 1538 1538 1539 1539 1539 1539 1539 1539 1538 1538 1537 1537 1536 1535 1534 1533 1531 1529 1528 1525 1523 1521 1519 1516 1514 1511 1508
1515 1516 1517 1519 1520 1522 1523 1525 1527 1528 1529 1531 1532 1533 1533 1534 1534 1534 1534 1535 1535 1535 1535 1535 1534 1534 1533 1532 1531 1530 1529 1528 1526 1524 1523 1521 1518 1516 1514 1511 1509 1506 1503
1512 1513 1515 1516 1517 1519 1520 1522 1523 1524 1526 1527 1528 1529 1529 1530 1530 1530 1530 1530 1530 1530 1530 1530 1529 1529 1528 1527 1527 1526 1524 1523 1521 1519 1517 1515 1513 1511 1508 1506 1503 1500 1498
1509 1510 1511 1513 1514 1515 1517 1518 1519 1520 1522 1523 1524 1524 1525 1525 1525 1526 1526 1525 1525 1525 1525 1524 1524 1523 1523 1522 1521 1520 1519 1517 1516 1514 1512 1510 1507 1505 1503 1500 1497 1495 1492
1507 1508 1509 1510 1511 1512 1513 1514 1515 1516 1517 1518 1519 1519 1520 1520 1521 1521 1521 1520 1520 1519 1519 1519 1518 1518 1517 1516 1515 1514 1513 1511 1510 1508 1506 1504 1501 1499 1497 1494 1491 1488 1486
1505 1505 1506 1507 1508 1509 1510 1511 1512 1512 1513 1513 1514 1514 1515 1515 1515 1515 1515 1515 1514 1514 1513 1513 1512 1512 1511 1510 1509 1508 1507 1505 1504 1502 1499 1497 1495 1493 1491 1488 1485 1482 1480